FW7166 Weather Reports


Display with metric or nautical units.
time (UTC)temp
F
wind
direction
speed
MPH
gust
MPH
rain 1hr
in
rain 24hr
in
rain mn
in
humidity
%
barometer
mb
20260904151932 58 203 0.0 13.0 0.00 0.00 0.20 90 1000.3
20260904151432 58 229 0.0 13.0 0.00 0.00 0.20 90 1000.4
20260904145859 58 222 0.0 13.0 0.00 0.00 0.20 90 1000.2
20260904145359 58 214 0.0 13.0 0.00 0.00 0.20 90 1000.2
20260904144859 58 230 0.0 13.0 0.00 0.00 0.20 91 1000.4
20260904144358 58 234 0.0 13.0 0.00 0.00 0.20 91 1000.3
20260904143857 58 234 0.0 13.0 0.00 0.00 0.20 90 1000.7
20260904143357 58 222 0.0 13.0 0.00 0.00 0.20 90 1000.7
20260904142857 58 239 0.0 13.0 0.00 0.00 0.20 90 1000.6
20260904142356 58 239 0.0 13.0 0.00 0.00 0.20 89 1000.8
20260904141342 58 154 0.0 13.0 0.00 0.00 0.20 87 1001.0
20260904140840 58 201 0.0 13.0 0.00 0.00 0.20 87 1001.1
20260904140339 58 210 0.0 13.0 0.00 0.00 0.20 85 1000.5
20260904135838 59 227 0.0 13.0 0.00 0.00 0.20 84 1000.8
20260904135339 59 88 0.0 13.0 0.00 0.00 0.20 83 1000.7
20260904134839 60 168 1.0 13.0 0.00 0.00 0.20 81 1000.8
20260904133821 60 157 0.0 13.0 0.00 0.00 0.20 81 1000.9
20260904133320 60 111 1.0 13.0 0.00 0.00 0.20 80 1001.0
20260904132819 60 132 0.0 13.0 0.00 0.00 0.20 80 1001.1
20260904132319 60 85 0.0 13.0 0.00 0.00 0.20 80 1000.9
20260904131819 61 222 0.0 13.0 0.00 0.00 0.20 79 1000.7
20260904131318 61 116 0.0 13.0 0.00 0.00 0.20 80 1001.1
20260904130818 60 205 0.0 13.0 0.00 0.00 0.20 82 1001.1
20260904125801 60 218 0.0 13.0 0.00 0.00 0.20 81 1001.0
20260904125305 60 207 0.0 13.0 0.00 0.00 0.20 81 1000.9
20260904124800 60 163 0.0 13.0 0.00 0.00 0.20 82 1001.0
20260904123744 60 236 0.0 13.0 0.00 0.00 0.20 83 1001.2
20260904123243 60 216 0.0 13.0 0.00 0.00 0.20 82 1001.6
20260904121711 60 236 0.0 13.0 0.00 0.00 0.20 82 1001.7
20260904121210 60 202 0.0 13.0 0.00 0.00 0.20 81 1001.4
20260904120710 60 203 0.0 13.0 0.00 0.00 0.20 81 1002.0
20260904120210 60 195 0.0 13.0 0.00 0.00 0.20 80 1001.8
20260904115710 60 257 1.0 13.0 0.00 0.00 0.20 79 1001.8
20260904115209 60 195 0.0 13.0 0.00 0.00 0.20 80 1001.6
20260904114153 60 222 0.0 13.0 0.00 0.00 0.20 80 1001.5
20260904113653 60 169 0.0 13.0 0.00 0.00 0.20 81 1001.9
20260904112637 60 117 0.0 13.0 0.00 0.00 0.20 84 1002.1
20260904112136 60 257 0.0 13.0 0.00 0.00 0.20 83 1002.1
20260904111636 60 206 0.0 13.0 0.00 0.00 0.20 83 1001.8
20260904111135 60 154 1.0 13.0 0.00 0.00 0.20 84 1001.8
20260904105602 60 212 1.0 13.0 0.00 0.00 0.20 85 1002.8
20260904105101 59 166 0.0 13.0 0.00 0.00 0.20 86 1002.8
20260904104601 59 54 0.0 13.0 0.00 0.00 0.20 87 1002.6
20260904104100 59 206 0.0 13.0 0.00 0.00 0.20 87 1003.0
20260904103600 59 185 1.0 13.0 0.00 0.00 0.20 88 1002.5
20260904103059 59 196 0.0 13.0 0.00 0.00 0.20 90 1002.8
20260904102559 59 184 0.0 13.0 0.00 0.00 0.20 89 1003.3
20260904102058 59 227 0.0 13.0 0.00 0.00 0.20 88 1002.7
20260904101558 59 216 0.0 13.0 0.00 0.00 0.20 87 1002.6
20260904100542 60 208 0.0 13.0 0.00 0.00 0.20 84 1002.9
20260904100041 60 200 0.0 13.0 0.00 0.00 0.20 82 1002.6
20260904095541 60 228 1.0 13.0 0.00 0.00 0.20 81 1002.8
20260904095040 60 204 1.0 13.0 0.00 0.00 0.20 81 1002.6
20260904094540 60 235 1.0 13.0 0.00 0.00 0.20 82 1002.9
20260904094039 60 217 1.0 13.0 0.00 0.00 0.20 81 1003.0
20260904093538 60 174 0.0 13.0 0.00 0.00 0.20 82 1003.3
20260904093038 60 229 0.0 13.0 0.00 0.00 0.20 83 1003.3
20260904092537 60 246 1.0 13.0 0.00 0.00 0.20 84 1003.5
20260904092036 60 154 1.0 13.0 0.00 0.00 0.20 84 1003.3
20260904091536 60 206 0.0 13.0 0.00 0.00 0.20 84 1003.3
20260904091036 59 208 2.0 13.0 0.00 0.00 0.20 83 1003.3
20260904090535 59 201 2.0 13.0 0.00 0.00 0.20 83 1003.5
20260904090034 60 228 1.0 13.0 0.00 0.00 0.20 85 1003.6
20260904085533 59 206 1.0 13.0 0.00 0.00 0.20 85 1003.2
20260904085032 59 215 1.0 13.0 0.00 0.00 0.20 85 1003.0
20260904084532 59 233 0.0 13.0 0.00 0.00 0.20 86 1003.4
20260904084031 59 221 1.0 13.0 0.00 0.00 0.20 86 1003.3
20260904083531 59 206 3.0 13.0 0.00 0.00 0.20 86 1003.6
20260904083030 59 224 1.0 13.0 0.00 0.00 0.20 88 1003.5
20260904082529 59 223 1.0 13.0 0.00 0.00 0.20 90 1003.4
20260904082029 58 210 0.0 13.0 0.00 0.00 0.20 90 1003.3
20260904081013 58 333 1.0 13.0 0.00 0.00 0.20 91 1003.5
20260904080513 58 204 2.0 13.0 0.00 0.00 0.20 91 1003.8
20260904080013 58 274 0.0 13.0 0.00 0.00 0.20 92 1003.4
20260904075513 58 338 1.0 13.0 0.00 0.00 0.20 92 1003.5
20260904075012 57 275 0.0 13.0 0.00 0.00 0.20 93 1003.2
20260904074511 57 229 1.0 13.0 0.00 0.00 0.20 93 1003.7
20260904074010 57 217 0.0 13.0 0.00 0.00 0.20 94 1003.5
20260904073510 57 198 1.0 13.0 0.00 0.00 0.20 94 1004.1
20260904073009 56 206 0.0 13.0 0.00 0.00 0.20 95 1003.9
20260904072508 56 234 1.0 13.0 0.00 0.00 0.20 95 1004.0
20260904072008 56 149 0.0 13.0 0.00 0.00 0.20 95 1004.2
20260904071508 56 253 1.0 13.0 0.00 0.00 0.20 95 1004.0
20260904071007 56 192 0.0 13.0 0.00 0.00 0.20 95 1004.0
20260904070507 56 219 0.0 13.0 0.00 0.00 0.20 95 1004.0
20260904065450 56 179 1.0 13.0 0.00 0.00 0.20 95 1004.5
20260904064950 56 197 0.0 13.0 0.00 0.00 0.20 95 1004.3
20260904064449 56 182 0.0 13.0 0.00 0.00 0.20 96 1004.7
20260904063948 55 197 1.0 13.0 0.00 0.00 0.20 95 1004.7
20260904063448 55 113 0.0 13.0 0.00 0.00 0.20 95 1004.8
20260904062948 55 197 0.0 13.0 0.00 0.00 0.20 95 1004.5
20260904062447 55 258 0.0 13.0 0.00 0.00 0.20 95 1004.2
20260904061946 55 190 1.0 13.0 0.00 0.00 0.20 95 1004.7
20260904061446 55 214 0.0 13.0 0.00 0.00 0.20 95 1004.7
20260904055357 55 194 2.0 13.0 0.00 0.00 0.20 96 1004.8
20260904054341 55 236 1.0 13.0 0.00 0.00 0.20 96 1004.7
20260904053840 55 220 0.0 13.0 0.00 0.00 0.20 96 1004.5
20260904053339 55 204 1.0 13.0 0.00 0.00 0.20 96 1004.9
20260904052838 55 187 1.0 13.0 0.00 0.00 0.20 96 1004.2
20260904052337 55 185 1.0 13.0 0.00 0.00 0.20 96 1004.8
20260904051321 55 205 0.0 13.0 0.00 0.00 0.20 97 1004.6
20260904050820 55 198 0.0 13.0 0.00 0.00 0.20 97 1004.6
20260904050320 55 284 0.0 13.0 0.00 0.00 0.20 97 1004.6
20260904045306 55 218 0.0 13.0 0.00 0.00 0.20 97 1004.7
20260904044803 55 191 0.0 13.0 0.00 0.00 0.20 97 1004.5
20260904043231 55 233 0.0 13.0 0.00 0.00 0.20 97 1005.0
20260904042730 55 225 0.0 13.0 0.00 0.00 0.20 97 1005.1
20260904042229 55 212 0.0 13.0 0.00 0.00 0.20 97 1004.8
20260904041729 55 138 0.0 13.0 0.00 0.00 0.20 97 1005.1
20260904040158 55 200 0.0 13.0 0.00 0.00 0.20 97 1004.8
20260904035657 55 235 0.0 13.0 0.00 0.00 0.20 97 1004.9
20260904035157 55 245 0.0 13.0 0.00 0.00 0.20 97 1004.7
20260904034656 55 236 0.0 13.0 0.00 0.00 0.20 97 1004.8
20260904034155 55 189 0.0 13.0 0.00 0.00 0.20 97 1005.1
20260904033655 55 217 0.0 13.0 0.00 0.00 0.20 97 1005.1
20260904032639 55 217 0.0 13.0 0.00 0.00 0.20 97 1005.1
20260904032138 55 196 1.0 13.0 0.00 0.00 0.20 97 1005.7
20260904031638 55 169 1.0 13.0 0.00 0.00 0.20 97 1005.5
20260904031137 55 199 0.0 13.0 0.00 0.00 0.20 97 1005.3
20260904030636 55 163 1.0 13.0 0.00 0.00 0.20 97 1005.7
20260904030136 55 215 0.0 13.0 0.00 0.00 0.20 97 1005.2
20260904025636 55 213 0.0 13.0 0.00 0.00 0.20 97 1005.5
20260904025135 55 212 0.0 13.0 0.00 0.00 0.20 97 1005.4
20260904024635 55 191 0.0 13.0 0.00 0.00 0.20 97 1005.6
20260904024135 55 224 0.0 13.0 0.00 0.00 0.20 97 1005.3
20260904023119 55 218 0.0 13.0 0.00 0.00 0.20 97 1005.1
20260904022619 55 214 1.0 13.0 0.00 0.00 0.20 97 1005.3
20260904022118 55 242 1.0 13.0 0.00 0.00 0.20 97 1005.1
20260904021618 55 220 1.0 13.0 0.00 0.00 0.20 97 1005.2
20260904021117 56 235 1.0 13.0 0.00 0.00 0.20 97 1005.5
20260904020617 56 203 1.0 13.0 0.00 0.00 0.20 97 1005.6
20260904020116 56 216 1.0 13.0 0.00 0.00 0.20 97 1005.2
20260904015616 56 231 1.0 13.0 0.00 0.00 0.20 97 1005.4
20260904015116 56 194 0.0 13.0 0.00 0.00 0.20 97 1005.3
20260904014616 56 178 1.0 13.0 0.01 0.00 0.20 97 1005.5
20260904014115 56 218 2.0 13.0 0.01 0.00 0.20 97 1005.2
20260904013614 56 215 0.0 12.0 0.03 0.00 0.20 97 1005.3
20260904013114 56 245 0.0 12.0 0.04 0.00 0.20 97 1005.4
20260904012613 56 227 0.0 12.0 0.04 0.00 0.20 97 1005.2
20260904012113 56 227 0.0 12.0 0.04 0.00 0.20 97 1005.4
20260904011057 56 208 1.0 12.0 0.06 0.00 0.20 97 1005.8
20260904010557 56 230 2.0 12.0 0.06 0.00 0.20 97 1005.9
20260904010057 57 224 2.0 14.0 0.06 0.00 0.20 97 1005.3
20260904005556 57 232 1.0 14.0 0.07 0.00 0.19 98 1005.8
20260904005056 57 201 1.0 14.0 0.07 0.00 0.19 98 1005.7
20260904004556 57 222 1.0 14.0 0.07 0.00 0.19 98 1005.4
20260904004055 57 228 1.0 14.0 0.08 0.00 0.18 98 1005.5
20260904003554 57 216 0.0 14.0 0.07 0.00 0.16 98 1005.6
20260904003054 57 231 1.0 14.0 0.06 0.00 0.15 98 1005.6
20260904001008 58 212 0.0 14.0 0.07 0.00 0.13 98 1005.6
20260904000507 58 218 0.0 14.0 0.07 0.00 0.13 98 1005.4
20260904000006 58 233 0.0 14.0 0.09 0.00 0.13 98 1005.5
20260903235506 58 277 0.0 14.0 0.07 0.00 0.11 98 1005.3
20260903235006 58 214 0.0 14.0 0.08 0.00 0.11 98 1005.5
20260903234505 58 243 0.0 14.0 0.08 0.00 0.11 98 1005.3
20260903234005 57 219 0.0 14.0 0.07 0.00 0.09 98 1005.2
20260903233504 57 190 0.0 14.0 0.07 0.00 0.09 98 1005.4
20260903233004 57 142 0.0 14.0 0.07 0.00 0.08 98 1005.6
20260903232504 57 142 0.0 14.0 0.06 0.00 0.07 98 1005.6
20260903231447 57 144 0.0 14.0 0.06 0.00 0.06 98 1005.5
20260903230946 57 144 0.0 14.0 0.05 0.00 0.06 98 1005.5
20260903225931 57 144 0.0 14.0 0.04 0.00 0.04 98 1005.7
20260903225430 57 144 0.0 14.0 0.03 0.00 0.03 98 1005.9
20260903224930 57 144 0.0 14.0 0.03 0.00 0.03 98 1005.6
20260903224430 57 144 0.0 14.0 0.03 0.00 0.03 98 1005.8
20260903223930 57 143 0.0 14.0 0.03 0.00 0.03 98 1006.0
20260903223430 57 140 0.0 14.0 0.02 0.00 0.02 98 1005.9
20260903222929 57 140 0.0 14.0 0.00 0.00 0.00 98 1005.7
20260903222428 57 139 0.0 14.0 0.00 0.00 0.00 98 1005.9
20260903221927 57 144 0.0 14.0 0.00 0.00 0.00 98 1006.1
20260903220911 57 148 0.0 14.0 0.00 0.00 0.00 98 1006.2
20260903220410 57 147 0.0 14.0 0.00 0.00 0.00 98 1006.0
20260903215910 57 147 0.0 14.0 0.00 0.00 0.30 98 1006.0
20260903215409 57 148 0.0 14.0 0.00 0.00 0.30 98 1006.1
20260903214909 57 148 0.0 14.0 0.00 0.00 0.30 98 1006.2
20260903213337 57 148 0.0 14.0 0.00 0.00 0.30 98 1006.2
20260903212837 57 148 0.0 14.0 0.00 0.00 0.30 98 1006.1
20260903212336 57 148 0.0 14.0 0.00 0.00 0.30 98 1006.3
20260903211835 57 148 0.0 14.0 0.00 0.00 0.30 98 1006.4
20260903211334 57 148 0.0 14.0 0.00 0.00 0.30 98 1006.5
20260903210834 57 149 0.0 14.0 0.00 0.00 0.30 98 1006.4
20260903210334 57 149 0.0 14.0 0.00 0.00 0.30 98 1006.1
20260903205834 57 149 0.0 14.0 0.00 0.00 0.30 98 1006.3
20260903205334 57 149 0.0 14.0 0.00 0.00 0.30 98 1006.2
20260903204834 57 149 0.0 14.0 0.00 0.00 0.30 98 1006.8
20260903204333 57 148 0.0 14.0 0.00 0.00 0.30 98 1006.3
20260903203316 57 146 0.0 14.0 0.00 0.00 0.30 98 1006.2
20260903202259 57 147 0.0 14.0 0.00 0.00 0.30 98 1006.5
20260903200727 57 148 0.0 14.0 0.00 0.00 0.30 98 1006.7
20260903200226 57 148 0.0 14.0 0.00 0.00 0.30 98 1006.6
20260903195725 57 149 0.0 14.0 0.00 0.00 0.30 98 1006.8
20260903195224 57 149 0.0 14.0 0.00 0.00 0.30 98 1007.1
20260903194723 57 150 0.0 14.0 0.00 0.00 0.30 98 1006.9
20260903194222 57 150 0.0 14.0 0.00 0.00 0.30 98 1006.9
20260903193722 57 150 0.0 14.0 0.00 0.00 0.30 98 1006.7
20260903193222 57 150 0.0 14.0 0.00 0.00 0.30 97 1006.8
20260903192722 57 151 0.0 14.0 0.00 0.00 0.30 97 1007.0
20260903192221 57 151 0.0 14.0 0.00 0.00 0.30 97 1006.7
20260903191721 57 150 0.0 14.0 0.00 0.00 0.30 97 1006.7
20260903190705 57 152 0.0 14.0 0.00 0.00 0.30 97 1006.6
20260903190205 57 152 0.0 14.0 0.00 0.00 0.30 97 1006.6
20260903185705 57 152 0.0 14.0 0.00 0.00 0.30 97 1006.9
20260903185204 58 153 0.0 14.0 0.00 0.00 0.29 97 1006.9
20260903184704 58 153 0.0 14.0 0.00 0.00 0.29 97 1007.1
20260903184203 58 152 0.0 14.0 0.00 0.00 0.29 97 1006.9
20260903183703 58 152 0.0 14.0 0.00 0.00 0.29 97 1007.2
20260903183202 58 152 0.0 14.0 0.02 0.00 0.29 97 1006.9
20260903182702 58 152 0.0 14.0 0.03 0.00 0.29 97 1006.7
20260903182202 58 152 0.0 14.0 0.05 0.00 0.29 97 1006.6
20260903181701 58 151 0.0 14.0 0.05 0.00 0.29 97 1006.9
20260903181200 58 151 0.0 14.0 0.06 0.00 0.29 97 1006.8
20260903180659 58 151 0.0 14.0 0.06 0.00 0.29 97 1007.2
20260903175643 58 150 0.0 14.0 0.06 0.00 0.29 97 1007.1
20260903175143 58 148 0.0 14.0 0.06 0.00 0.29 97 1007.0
20260903174643 58 148 0.0 14.0 0.06 0.00 0.29 97 1007.3
20260903173628 58 148 0.0 14.0 0.05 0.00 0.27 97 1006.9
20260903173128 58 145 0.0 14.0 0.04 0.00 0.27 97 1007.1
20260903172627 58 146 0.0 14.0 0.05 0.00 0.26 97 1007.3
20260903172127 58 147 0.0 14.0 0.03 0.00 0.24 97 1007.1
20260903171626 58 148 0.0 14.0 0.03 0.00 0.24 97 1007.2
20260903171126 58 148 0.0 14.0 0.03 0.00 0.24 97 1007.1
20260903170625 58 148 0.0 14.0 0.03 0.00 0.23 97 1007.0
20260903170124 58 148 0.0 14.0 0.03 0.00 0.23 97 1007.2
20260903165623 58 145 0.0 14.0 0.04 0.00 0.22 97 1007.1
20260903165122 58 146 0.0 14.0 0.05 0.00 0.22 97 1007.2
20260903164622 58 145 0.0 14.0 0.06 0.00 0.22 97 1007.2
20260903164121 58 145 0.0 14.0 0.08 0.00 0.22 97 1007.4
20260903163620 58 144 0.0 14.0 0.10 0.00 0.22 96 1007.5
20260903163120 58 144 0.0 14.0 0.12 0.00 0.22 97 1007.2
20260903162619 58 145 0.0 14.0 0.13 0.00 0.22 97 1007.5
20260903162120 58 145 0.0 14.0 0.12 0.00 0.20 97 1007.8
20260903161619 58 144 0.0 14.0 0.14 0.00 0.20 96 1007.7
20260903161118 58 145 0.0 14.0 0.14 0.00 0.20 96 1007.7
20260903160617 58 146 0.0 14.0 0.14 0.00 0.20 96 1008.0
20260903160117 58 145 0.0 14.0 0.13 0.00 0.20 96 1007.7
20260903155618 58 143 0.0 14.0 0.11 0.00 0.17 96 1008.2
20260903154045 58 147 0.0 14.0 0.08 0.00 0.13 96 1008.2
20260903153545 58 145 0.0 14.0 0.09 0.00 0.13 96 1007.9
20260903152528 58 167 0.0 14.0 0.05 0.00 0.09 96 1008.3
20260903152028 58 168 0.0 14.0 0.04 0.00 0.08 96 1008.4